[[{"header":{"parameterUnit":"m.s-1","parameterCategory":1,"la1":30.2991,"la2":30.254,"lo1":-89.0895,"lo2":-89.0444,"dy":0.0017,"dx":0.0017,"nx":28,"ny":28,"refTime":"2025-07-22T03:00:00:Z","depth":0,"parameterNumber":2,"parameterNumberName":"U-component_of_WINDS"},"data":[0,0,0,0,0,0,0,0,0,0,0,0,0,0,0,0,0,0,0,0,0,0,0,0,0,0,0,0,0,0,0,0,0,0,0,0,0,0,0,0,0,0,0,0,0,0,0,0,0,0,0,0,0,0,0,0,0,0,1.2051,1.2052,0,1.2091,1.2092,1.2092,1.2084,1.2083,1.2082,1.2081,1.2124,1.2126,1.2128,0,0,0,0,0,0,0,0,0,0,0,0,0,1.197,1.1972,1.2051,1.2052,1.2052,1.2091,1.2092,1.2092,1.2084,1.2083,1.2082,1.2081,1.2124,1.2126,1.2128,0,0,0,0,0,0,0,0,0,0,0,0,0,1.2007,1.1972,1.2051,1.2052,1.2053,1.2091,1.2092,1.2092,1.2084,1.2083,1.2082,1.2081,1.2123,1.2126,1.2128,1.2168,0,0,1.2137,1.2138,0,0,0,0,0,0,0,0,1.2005,1.201,1.2052,1.2052,1.2053,1.2081,1.2079,1.2118,1.2084,1.2072,1.2081,1.208,1.2111,1.2115,1.2125,1.217,1.2172,1.2137,1.2139,1.214,1.2141,0,0,0,0,0,0,0,1.2003,1.2009,1.2067,1.2052,1.2053,1.2052,1.2056,1.2086,1.2097,1.2073,1.2073,1.2077,1.2111,1.2122,1.2126,1.2172,1.2137,1.2139,1.2141,1.2142,1.2255,1.2256,0,0,0,0,0,0,1.1999,1.2007,1.2066,1.2068,1.2026,1.2055,1.2059,1.2073,1.2097,1.21,1.2078,1.2077,1.2118,1.2122,1.2127,1.2177,1.214,1.2142,1.2144,1.2254,1.2255,1.2257,0,0,0,0,0,0,1.1998,1.2005,1.2064,1.2037,1.2045,1.2057,1.2073,1.2075,1.2086,1.2101,1.2103,1.2087,1.2117,1.2123,1.2158,1.2178,1.2144,1.2146,1.2252,1.2254,1.2256,1.2276,0,0,0,0,0,0,1.1995,1.2004,1.2018,1.2038,1.2046,1.2094,1.2074,1.2076,1.209,1.2089,1.211,1.2112,1.2117,1.2154,1.2161,1.2182,1.2148,1.225,1.2253,1.2255,1.2274,1.2279,1.2283,0,0,0,0,0,1.1992,1.2022,1.2019,1.2026,1.2064,1.2095,1.21,1.2104,1.2092,1.2107,1.2117,1.2112,1.2175,1.2158,1.2165,1.2187,1.2249,1.2252,1.2255,1.2272,1.2278,1.2283,0,0,0,0,0,0,1.2005,1.2025,1.2021,1.2058,1.2075,1.2093,1.2113,1.2109,1.213,1.2128,1.2133,1.2138,1.2174,1.2184,1.2165,1.2228,1.221,1.2215,1.222,1.2226,1.223,1.2228,1.2151,0,0,0,0,0,1.2012,1.2034,1.2051,1.2081,1.209,1.21,1.2113,1.2115,1.2133,1.214,1.2153,1.2171,1.2195,1.2211,1.2234,1.2275,1.2281,1.2294,1.2298,1.2302,1.2306,1.2331,1.2338,1.2267,1.2267,1.2266,0,0,1.2027,1.204,1.2054,1.2084,1.2098,1.2122,1.2106,1.2132,1.2151,1.2144,1.2179,1.2189,1.2209,1.2248,1.2266,1.2258,1.2327,1.2305,1.2308,1.2311,1.2335,1.2342,1.2348,1.2269,1.2268,1.2268,0,0,1.2067,1.2078,1.2106,1.212,1.2141,1.2147,1.2154,1.2173,1.218,1.2214,1.2211,1.2233,1.2274,1.229,1.2303,1.2351,1.2348,1.2358,1.2382,1.2407,1.2412,1.2418,1.2437,1.2444,1.2362,1.2363,1.2363,0,1.2083,1.2119,1.2121,1.2149,1.2163,1.2158,1.2188,1.2201,1.2228,1.2239,1.2229,1.2282,1.2295,1.2339,1.2351,1.2361,1.237,1.2357,1.2411,1.2416,1.2421,1.244,1.2447,1.2364,1.2364,1.2364,1.2363,0,1.2139,1.2164,1.2185,1.2211,1.2228,1.2256,1.2264,1.2281,1.2281,1.229,1.2326,1.2342,1.2369,1.238,1.238,1.2424,1.2419,1.241,1.2393,1.2429,1.2447,1.2454,1.2366,1.2365,1.2365,1.2365,0,0,1.2188,1.2216,1.2224,1.2237,1.226,1.228,1.2309,1.2335,1.2351,1.237,1.2396,1.2431,1.2424,1.2439,1.2441,1.2462,1.2502,1.2451,1.2452,1.2462,1.2555,1.2563,1.2571,1.25,1.2501,1.2502,1.2554,0,1.2232,1.2282,1.2286,1.2332,1.2357,1.2353,1.2379,1.2397,1.2405,1.2428,1.2438,1.2464,1.2451,1.2461,1.2481,1.2493,1.2522,1.2489,1.2526,1.2527,1.2523,1.258,1.2588,1.2637,1.2561,1.2562,1.2563,0,1.2289,1.2311,1.2359,1.2381,1.2391,1.2414,1.244,1.2461,1.2482,1.2487,1.2505,1.2505,1.2537,1.2517,1.2562,1.254,1.2555,1.2563,1.2565,1.257,1.2548,1.2589,1.2652,1.266,1.2573,1.2572,1.2572,0,1.2323,1.2364,1.2399,1.241,1.2435,1.2452,1.2463,1.2482,1.2499,1.2522,1.2533,1.2559,1.2574,1.2594,1.2602,1.2587,1.2648,1.2628,1.2655,1.2655,1.2669,1.2668,1.2737,1.2675,1.2675,1.2675,1.2675,0,1.2373,1.2403,1.2415,1.2437,1.2472,1.2476,1.2511,1.2522,1.2539,1.2564,1.2562,1.2586,1.2594,1.2619,1.2625,1.2663,1.2669,1.2676,1.2677,1.2677,1.2677,1.2688,1.2686,1.2677,1.2676,1.2676,1.2676,0,1.2417,1.2426,1.2464,1.2485,1.2491,1.2516,1.2535,1.2557,1.2565,1.2597,1.2605,1.2619,1.2649,1.2658,1.2694,1.2699,1.2744,1.2741,1.2737,1.2738,1.2764,1.2763,1.2845,1.2857,1.2785,1.2786,1.2786,0,1.2449,1.2473,1.2497,1.2513,1.2525,1.2552,1.2569,1.2575,1.2593,1.2619,1.2639,1.2668,1.2693,1.2741,1.2755,1.2783,1.2783,1.281,1.2787,1.2787,1.2787,1.2786,1.2789,1.2815,1.2816,1.2816,1.2817,0,1.2506,1.251,1.2534,1.256,1.2581,1.2602,1.2623,1.2636,1.2646,1.2666,1.2697,1.2716,1.2754,1.2784,1.2813,1.2826,1.2824,1.2824,1.2832,1.2833,1.283,1.2835,1.2751,1.2822,1.2822,1.2821,1.2821,1.2821,1.2547,1.2569,1.2589,1.2617,1.2633,1.2653,1.2675,1.2687,1.2713,1.2744,1.2746,1.278,1.2802,1.2841,1.2855,1.2883,1.2876,1.2886,1.289,1.2893,1.2896,1.2824,1.2888,1.2888,1.2888,1.2888,1.2888,0,1.2606,1.2619,1.2645,1.2674,1.2696,1.2691,1.2714,1.2734,1.2764,1.2784,1.2808,1.2845,1.2875,1.2892,1.2922,1.2941,1.2941,1.2949,1.2949,1.2953,1.29,1.2891,1.2949,1.2949,1.2949,1.2949,1.2949,1.2949,1.2639,1.2677,1.2683,1.2729,1.2742,1.2776,1.279,1.2809,1.2825,1.2866,1.2891,1.2902,1.2921,1.2953,1.2981,1.2986,1.2998,1.3007,1.3011,1.2962,1.2956,1.295,1.2942,1.3009,1.3009,1.3062,1.3062,1.3062]},{"header":{"parameterUnit":"m.s-1","parameterCategory":1,"la1":30.2991,"la2":30.254,"lo1":-89.0895,"lo2":-89.0444,"dy":0.0017,"dx":0.0017,"nx":28,"ny":28,"refTime":"2025-07-22T03:00:00:Z","depth":0,"parameterNumber":3,"parameterNumberName":"V-component_of_WINDS"},"data":[0,0,0,0,0,0,0,0,0,0,0,0,0,0,0,0,0,0,0,0,0,0,0,0,0,0,0,0,0,0,0,0,0,0,0,0,0,0,0,0,0,0,0,0,0,0,0,0,0,0,0,0,0,0,0,0,0,0,0.235,0.2351,0,0.2409,0.241,0.2411,0.2348,0.2345,0.2343,0.234,0.2403,0.2407,0.241,0,0,0,0,0,0,0,0,0,0,0,0,0,0.2183,0.2187,0.235,0.2351,0.2352,0.2409,0.241,0.2411,0.2348,0.2345,0.2342,0.2339,0.2401,0.2406,0.2411,0,0,0,0,0,0,0,0,0,0,0,0,0,0.225,0.2188,0.235,0.2327,0.2326,0.2409,0.241,0.2411,0.2349,0.2345,0.2341,0.2338,0.24,0.2406,0.2411,0.2521,0,0,0.2429,0.2432,0,0,0,0,0,0,0,0,0.2247,0.2257,0.233,0.2329,0.2328,0.2367,0.2374,0.2448,0.235,0.234,0.234,0.2336,0.2394,0.24,0.2419,0.2524,0.2526,0.243,0.2433,0.2436,0.2438,0,0,0,0,0,0,0,0.2242,0.2254,0.2374,0.2331,0.233,0.2314,0.232,0.2388,0.2387,0.2341,0.2336,0.2344,0.2393,0.2414,0.242,0.2527,0.243,0.2435,0.2439,0.2441,0.2721,0.2725,0,0,0,0,0,0,0.224,0.225,0.2372,0.2376,0.2277,0.232,0.2326,0.2358,0.2386,0.2387,0.2347,0.2341,0.2406,0.2414,0.2422,0.2549,0.2436,0.2442,0.2445,0.2717,0.2722,0.2726,0,0,0,0,0,0,0.2237,0.2251,0.2369,0.2312,0.2326,0.2327,0.2363,0.2361,0.2382,0.2391,0.239,0.2369,0.2403,0.2414,0.2496,0.2551,0.2444,0.245,0.2712,0.2719,0.2724,0.2806,0,0,0,0,0,0,0.2232,0.2251,0.2292,0.2313,0.2329,0.2442,0.2367,0.2365,0.2392,0.2385,0.2411,0.2412,0.2401,0.2487,0.2502,0.2557,0.2454,0.2708,0.2715,0.2722,0.2799,0.2814,0.2827,0,0,0,0,0,0.2226,0.2314,0.2295,0.231,0.2381,0.2446,0.2455,0.244,0.2397,0.2439,0.2444,0.2411,0.2543,0.2496,0.2512,0.257,0.2704,0.2713,0.2722,0.2792,0.2811,0.2827,0,0,0,0,0,0,0.2301,0.2317,0.2295,0.2392,0.2418,0.2435,0.2487,0.2461,0.25,0.2491,0.2472,0.2478,0.2565,0.2576,0.2524,0.2675,0.2616,0.2629,0.2665,0.2683,0.2697,0.2691,0.2459,0,0,0,0,0,0.2329,0.238,0.2391,0.2475,0.2489,0.2486,0.2514,0.25,0.2526,0.2537,0.2548,0.2575,0.2622,0.2653,0.2697,0.28,0.2804,0.2848,0.2862,0.2874,0.2884,0.2936,0.2955,0.2755,0.2755,0.2755,0,0,0.2387,0.2401,0.2435,0.2491,0.2509,0.2561,0.2496,0.2555,0.2593,0.2546,0.2623,0.2632,0.2661,0.2753,0.2794,0.2765,0.294,0.2885,0.2895,0.2898,0.2947,0.2966,0.2983,0.2761,0.276,0.2759,0,0,0.2518,0.2536,0.2606,0.2625,0.2653,0.265,0.2667,0.2688,0.2692,0.2768,0.2733,0.2779,0.2861,0.2882,0.2903,0.3041,0.3011,0.3056,0.3131,0.3182,0.3198,0.3212,0.3258,0.3275,0.3067,0.3067,0.3067,0,0.2586,0.2664,0.2646,0.2707,0.2731,0.269,0.2761,0.2781,0.2822,0.284,0.2807,0.2907,0.2924,0.3018,0.3051,0.3071,0.3089,0.3052,0.3197,0.3211,0.3223,0.3267,0.3285,0.3072,0.3071,0.3071,0.307,0,0.2745,0.2799,0.2853,0.2892,0.2923,0.2989,0.2981,0.3015,0.2998,0.2998,0.3076,0.3094,0.314,0.3162,0.3147,0.3254,0.3234,0.32,0.3139,0.3248,0.3288,0.3305,0.3079,0.3077,0.3076,0.3075,0,0,0.2925,0.2952,0.2972,0.2987,0.3015,0.3056,0.312,0.3163,0.3191,0.3221,0.3272,0.3342,0.3309,0.3333,0.3321,0.3366,0.347,0.3325,0.3325,0.3349,0.3585,0.3609,0.3629,0.3451,0.3454,0.3457,0.3582,0,0.3054,0.3163,0.3148,0.3252,0.3301,0.3261,0.3316,0.3338,0.334,0.3382,0.3384,0.3433,0.3387,0.3401,0.3444,0.3448,0.3517,0.3439,0.3497,0.3499,0.3488,0.3651,0.3677,0.3794,0.3598,0.3601,0.3603,0,0.322,0.3254,0.3362,0.3379,0.3399,0.3448,0.3485,0.3526,0.355,0.3548,0.3574,0.3553,0.3615,0.3556,0.364,0.3588,0.3611,0.3616,0.362,0.3623,0.3556,0.3655,0.3831,0.3848,0.3628,0.3626,0.3624,0,0.3336,0.3409,0.3483,0.3498,0.3521,0.3556,0.3567,0.3587,0.3613,0.3646,0.3663,0.3703,0.3725,0.3757,0.3746,0.3704,0.3832,0.3772,0.383,0.3831,0.3857,0.3855,0.4037,0.3877,0.3877,0.3877,0.3876,0,0.3481,0.3548,0.3535,0.358,0.3653,0.3636,0.3709,0.3715,0.3734,0.3778,0.3748,0.3791,0.3776,0.3818,0.381,0.388,0.3891,0.389,0.3886,0.3891,0.3891,0.3904,0.3894,0.3881,0.388,0.3879,0.3878,0,0.3623,0.3617,0.3693,0.3708,0.3713,0.3766,0.3778,0.382,0.3819,0.3876,0.3889,0.3888,0.3935,0.3928,0.3982,0.3976,0.4062,0.405,0.4053,0.4049,0.4107,0.4101,0.4301,0.4325,0.4153,0.4154,0.4156,0,0.3714,0.3764,0.3783,0.381,0.3823,0.3869,0.3894,0.3879,0.3907,0.3937,0.3975,0.402,0.4054,0.4131,0.4135,0.4175,0.4162,0.423,0.4168,0.417,0.416,0.4156,0.4159,0.4241,0.4243,0.4245,0.4246,0,0.3876,0.3869,0.3908,0.3945,0.3976,0.4005,0.403,0.4055,0.4041,0.4075,0.4122,0.4149,0.4202,0.4245,0.4283,0.4294,0.4267,0.4266,0.4281,0.4285,0.4283,0.4281,0.4083,0.4261,0.4259,0.4258,0.4258,0.4257,0.3993,0.4034,0.4053,0.4096,0.4113,0.4138,0.4176,0.418,0.4219,0.426,0.4249,0.4302,0.4323,0.437,0.4385,0.4425,0.44,0.4423,0.4428,0.4433,0.4439,0.4279,0.4433,0.4432,0.4432,0.4432,0.4431,0,0.415,0.416,0.4199,0.4235,0.4268,0.4241,0.4267,0.4297,0.4343,0.4365,0.4399,0.4452,0.4494,0.4501,0.454,0.4571,0.456,0.4582,0.4578,0.458,0.446,0.4442,0.459,0.459,0.459,0.459,0.459,0.459,0.4235,0.4303,0.4299,0.4375,0.4384,0.4435,0.4452,0.4474,0.449,0.4551,0.4585,0.4589,0.4604,0.4643,0.468,0.4681,0.4695,0.4722,0.4717,0.4605,0.4589,0.4574,0.4556,0.4726,0.4726,0.4833,0.4834,0.4835]}]]